Raleigh, NC

2:17 AM EDT on August 25, 2016 (GMT -0400)
Raleigh-Durham International

Weather History for KRDU - January, 2013

Change the Weather History Date:

Monday, January 21, 2013

  Actual Average Record
Temperature  
Mean Temperature 44 °F 41 °F  
Max Temperature 59 °F 51 °F 75 °F (1933)
Min Temperature 29 °F 31 °F -9 °F (1985)
Degree Days  
Heating Degree Days 21 24  
Month to date heating degree days 380 510  
Since 1 July heating degree days 1557 1761  
Cooling Degree Days 0 0  
Month to date cooling degree days 0 0  
Year to date cooling degree days 0 0  
Moisture  
Dew Point 26 °F    
Average Humidity 59    
Maximum Humidity 92    
Minimum Humidity 26    
Precipitation  
Precipitation 0.00 in 0.11 in 1.44 in (1979)
Month to date precipitation 2.33 2.38  
Year to date precipitation 2.33 2.38  
Snow  
Snow 0.00 in 0.10 in 1.20 in (1961)
Month to date snowfall 0.8 1.9  
Since 1 July snowfall 0.8 2.6  
Snow Depth 0.00 in    
Sea Level Pressure  
Sea Level Pressure 30.00 in    
Wind  
Wind Speed 5 mph (WSW)    
Max Wind Speed 18 mph    
Max Gust Speed 25 mph    
Visibility 10 miles    
Events      
T = Trace of Precipitation, MM = Missing Value Source: NWS Daily Summary

Daily Weather History Graph

Daily Weather History Graph

Search for Another Location

Airport or City:

Trip Planner

Search our weather history database for the weather conditions in past years. The results will help you decide how hot, cold, wet, or windy it might be!

Date:

Astronomy

Jan. 21, 2013 Rise Set
Actual Time 7:22 AM EST 5:31 PM EST
Civil Twilight 6:54 AM EST 5:58 PM EST
Nautical Twilight 6:23 AM EST 6:29 PM EST
Astronomical Twilight 5:53 AM EST 7:00 PM EST
Moon 1:10 PM EST (1/21) 2:48 AM EST (1/21)
Length of Visible Light 11h 03m
Length of Day
10h 08m
Waxing Gibbous, 75% of the Moon is Illuminated
Jan 21
Waxing Gibbous
Jan 26
Full
Feb 3
Last Quarter
Feb 10
New
Feb 17
First Quarter

Hourly Weather History & Observations

Time (EST) Temp. Windchill Dew Point Humidity Pressure Visibility Wind Dir Wind Speed Gust Speed Precip Events Conditions
12:51 AM 37.0 °F - 28.0 °F 70% 30.09 in 10.0 mi Calm Calm - N/A   Clear
1:51 AM 35.1 °F - 28.9 °F 78% 30.08 in 10.0 mi Calm Calm - N/A   Clear
2:51 AM 34.0 °F - 28.9 °F 82% 30.08 in 10.0 mi Calm Calm - N/A   Clear
3:51 AM 30.9 °F - 28.0 °F 89% 30.07 in 10.0 mi Calm Calm - N/A   Clear
4:51 AM 32.0 °F - 28.0 °F 85% 30.06 in 10.0 mi Calm Calm - N/A   Clear
5:51 AM 30.9 °F - 27.0 °F 85% 30.07 in 10.0 mi Calm Calm - N/A   Clear
6:51 AM 30.9 °F - 28.0 °F 89% 30.07 in 10.0 mi Calm Calm - N/A   Clear
7:51 AM 30.0 °F - 28.0 °F 92% 30.07 in 10.0 mi Calm Calm - N/A   Partly Cloudy
8:51 AM 37.0 °F - 32.0 °F 82% 30.08 in 10.0 mi Calm Calm - N/A   Partly Cloudy
9:51 AM 48.0 °F - 28.0 °F 46% 30.07 in 10.0 mi ESE 5.8 mph - N/A   Clear
10:51 AM 50.0 °F - 25.0 °F 38% 30.06 in 10.0 mi SE 6.9 mph - N/A   Partly Cloudy
11:51 AM 53.1 °F - 26.1 °F 35% 30.03 in 10.0 mi SSW 3.5 mph - N/A   Partly Cloudy
12:51 PM 55.9 °F - 26.1 °F 32% 29.97 in 10.0 mi WSW 9.2 mph 16.1 mph N/A   Partly Cloudy
1:51 PM 57.9 °F - 26.1 °F 30% 29.94 in 10.0 mi SSW 11.5 mph - N/A   Partly Cloudy
2:51 PM 59.0 °F - 28.9 °F 32% 29.91 in 10.0 mi WSW 15.0 mph - N/A   Partly Cloudy
3:51 PM 57.9 °F - 28.9 °F 33% 29.90 in 10.0 mi WSW 10.4 mph - N/A   Partly Cloudy
4:51 PM 55.9 °F - 30.9 °F 39% 29.88 in 10.0 mi WSW 9.2 mph - N/A   Partly Cloudy
5:51 PM 52.0 °F - 28.0 °F 40% 29.88 in 10.0 mi WSW 6.9 mph - N/A   Partly Cloudy
6:51 PM 46.9 °F - 28.0 °F 48% 29.89 in 10.0 mi WSW 5.8 mph - N/A   Partly Cloudy
7:51 PM 50.0 °F - 28.0 °F 43% 29.91 in 10.0 mi West 6.9 mph - N/A   Partly Cloudy
8:51 PM 48.2 °F - 21.2 °F 34% 29.93 in 10.0 mi WNW 9.2 mph 19.6 mph N/A   Partly Cloudy
9:51 PM 48.0 °F - 15.1 °F 27% 29.94 in 10.0 mi WNW 8.1 mph 18.4 mph N/A   Partly Cloudy
10:51 PM 46.0 °F 41.9 °F 14.0 °F 28% 29.96 in 10.0 mi West 8.1 mph - N/A   Partly Cloudy
11:51 PM 44.1 °F 39.0 °F 14.0 °F 30% 29.96 in 10.0 mi West 9.2 mph - N/A   Partly Cloudy